Simultaneous Nadir Overpasses (SNOs) Predictions

Prediction of SNOs between METOP-B and TERRA Satellite Orbit:

Table of predicted SNOs for the next 14.0 days since TLE Epoch: 3/23/2017
Index Date (METOP-B) Time (METOP-B) Lat,Lon (METOP-B) SZA (METOP-B ) Date (TERRA) Time (TERRA) Lat,Lon (TERRA) SZA (TERRA ) Distance(km) Time Diff (sec)
1 03/25/2017 21:24:14 -81.32, 86.44 98.19 03/25/2017 21:24:34 -81.32, 86.62 98.16 3.01 20
2 03/25/2017 22:14:54 81.32,-105.86 81.84 03/25/2017 22:14:00 81.33,-105.70 81.84 2.79 54
3 03/28/2017 16:58:36 -81.32, 152.92 99.25 03/28/2017 16:58:50 -81.32, 152.89 99.25 0.69 14
4 03/28/2017 17:49:15 81.32, -39.43 80.78 03/28/2017 17:48:15 81.32, -39.44 80.74 0.82 60
5 03/31/2017 12:32:57 -81.32,-140.61 100.31 03/31/2017 12:33:04 -81.33,-140.44 100.28 2.94 7
6 03/31/2017 13:23:36 81.33, 27.38 79.76 03/31/2017 13:22:30 81.33, 27.21 79.71 2.95 66
7 04/03/2017 07:16:51 81.22, 113.44 78.04 04/03/2017 07:18:05 81.05, 113.73 77.98 19.75 74
8 04/03/2017 08:07:19 -81.32, -74.17 101.36 04/03/2017 08:07:20 -81.32, -74.15 101.36 0.28 1
9 04/03/2017 08:57:59 81.32, 93.39 78.66 04/03/2017 08:56:46 81.32, 93.49 78.63 1.70 73
10 04/06/2017 02:51:01 81.32,-175.50 77.57 04/06/2017 02:52:09 81.31,-175.53 77.59 0.73 68




NCC Satellite Simultaneous Nadir Overpasses (SNOs) Prediction Service
